period_start,C,m1,H,J0,J1,J2,J3,J4,J5,JA,JB,JC,JD,JJ,JK,JN,#
2016-06-07 00:03:33,0.04,0.52,0.00,25.50,28.82,31.54,14.53,47.01,1029.31,2030.00,3319.20,2992.45,3374.91,599.84,598.22,11.42,0000 0000 0000 0000 000000
2016-06-07 00:08:35,0.03,0.52,0.00,25.50,28.82,31.54,14.46,46.86,1029.31,2030.00,3318.61,2992.01,3374.21,599.85,598.24,11.47,0000 0000 0000 0000 000000
2016-06-07 00:13:36,0.01,0.52,0.00,25.51,28.82,31.53,14.52,47.06,1029.31,2030.00,3317.96,2991.92,3373.94,600.45,598.88,11.52,0000 0000 0000 0000 000000
2016-06-07 00:18:37,0.05,0.53,0.00,25.50,28.82,31.56,14.51,46.93,1029.31,2030.00,3317.09,2991.10,3373.10,599.93,598.37,11.57,0000 0000 0000 0000 000000
2016-06-07 00:23:38,0.03,0.53,0.00,25.51,28.82,31.54,14.50,46.96,1029.31,2030.00,3316.25,2990.91,3372.61,600.02,598.48,11.62,0000 0000 0000 0000 000000
2016-06-07 00:28:40,0.03,0.53,0.00,25.50,28.82,31.56,14.47,46.83,1029.31,2030.00,3315.77,2990.25,3372.02,599.60,598.14,11.67,0000 0000 0000 0000 000000
2016-06-07 00:33:41,0.01,0.53,0.00,25.48,28.82,31.57,14.49,47.23,1029.31,2030.00,3315.05,2990.00,3371.79,600.43,598.93,11.72,0000 0000 0000 0000 000000
2016-06-07 00:38:42,0.03,0.53,0.00,25.47,28.82,31.57,14.54,46.99,1029.30,2030.00,3314.36,2989.80,3371.08,599.95,598.43,11.77,0000 0000 0000 0000 000000
2016-06-07 00:43:44,0.03,0.53,0.00,25.47,28.82,31.57,14.49,47.32,1029.29,2030.00,3313.73,2989.08,3370.67,600.01,598.62,11.82,0000 0000 0000 0000 000000
2016-06-07 00:48:45,0.02,0.53,0.00,25.48,28.82,31.58,14.54,47.23,1029.30,2030.01,3313.16,2988.99,3370.15,600.52,599.02,11.87,0000 0000 0000 0000 000000
2016-06-07 00:53:46,0.01,0.53,0.00,25.49,28.82,31.56,14.50,46.96,1029.30,2030.00,3312.82,2988.71,3369.97,600.41,598.84,11.92,0000 0000 0000 0000 000000
2016-06-07 00:58:48,0.04,0.54,0.00,25.50,28.82,31.56,14.45,46.92,1029.29,2030.00,3312.08,2988.06,3369.38,600.06,598.52,11.97,0000 0000 0000 0000 000000
2016-06-07 01:03:49,0.00,0.54,0.00,25.50,28.82,31.55,14.55,47.27,1029.26,2030.00,3311.89,2987.99,3369.01,599.96,598.44,12.02,0000 0000 0000 0000 000000
2016-06-07 01:08:51,0.02,0.54,0.00,25.50,28.82,31.58,14.40,46.87,1029.15,2030.01,3311.14,2987.79,3368.80,599.62,597.97,12.07,0000 0000 0000 0000 000000
2016-06-07 01:13:52,0.03,0.54,0.00,25.50,28.82,31.55,14.57,47.37,1029.13,2030.01,3310.55,2987.17,3368.18,600.42,598.77,12.12,0000 0000 0000 0000 000000
2016-06-07 01:18:53,0.00,0.54,0.00,25.51,28.82,31.57,14.46,47.02,1029.11,2030.01,3309.97,2987.00,3367.93,599.82,598.21,12.17,0000 0000 0000 0000 000000
2016-06-07 01:23:55,0.03,0.54,0.00,25.52,28.82,31.54,14.60,47.23,1029.00,2030.02,3309.39,2986.82,3367.29,600.24,598.34,12.22,0000 0000 0000 0000 000000
2016-06-07 01:28:56,0.02,0.54,0.00,25.52,28.82,31.55,14.49,46.77,1028.91,2030.00,3308.87,2986.07,3366.98,600.10,598.25,12.27,0000 0000 0000 0000 000000
2016-06-07 01:33:57,0.02,0.55,0.00,25.52,28.82,31.55,14.58,47.06,1028.84,2030.00,3308.06,2986.00,3366.24,600.31,598.33,12.32,0000 0000 0000 0000 000000
2016-06-07 01:38:59,0.03,0.55,0.00,25.52,28.82,31.53,14.43,46.79,1028.83,2030.01,3307.57,2985.52,3365.98,600.03,597.91,12.37,0000 0000 0000 0000 000000
2016-06-07 01:44:00,0.02,0.55,0.00,25.53,28.82,31.55,14.48,46.83,1028.83,2030.01,3306.87,2985.02,3365.19,600.05,598.05,12.42,0000 0000 0000 0000 000000
2016-06-07 01:49:01,0.02,0.55,0.00,25.54,28.82,31.54,14.44,46.63,1028.83,2030.01,3306.04,2984.88,3364.80,599.04,597.10,12.47,0000 0000 0000 0000 000000
2016-06-07 01:54:03,0.04,0.55,0.00,25.55,28.82,31.56,14.41,46.83,1028.83,2030.03,3305.47,2984.18,3364.08,599.97,598.02,12.52,0000 0000 0000 0000 000000
2016-06-07 01:59:04,0.02,0.55,0.00,25.54,28.82,31.57,14.48,47.08,1028.83,2030.03,3304.87,2983.99,3363.78,600.46,598.49,12.57,0000 0000 0000 0000 000000
2016-06-07 02:04:05,0.03,0.55,0.00,25.54,28.82,31.57,14.47,46.93,1028.83,2030.01,3304.15,2983.53,3363.08,599.94,598.03,12.62,0000 0000 0000 0000 000000
2016-06-07 02:09:06,0.02,0.56,0.00,25.55,28.83,31.57,14.48,46.82,1028.82,2030.05,3303.56,2983.03,3362.79,600.13,598.18,12.67,0000 0000 0000 0000 000000
2016-06-07 02:14:08,0.04,0.56,0.00,25.55,28.84,31.58,14.50,47.06,1028.66,2030.03,3302.52,2982.68,3362.00,599.89,597.84,12.72,0000 0000 0000 0000 000000
2016-06-07 02:19:09,0.03,0.56,0.00,25.56,28.85,31.56,14.42,46.83,1028.54,2030.02,3301.86,2982.03,3361.16,599.43,597.49,12.77,0000 0000 0000 0000 000000
2016-06-07 02:24:10,0.03,0.56,0.00,25.56,28.85,31.57,14.50,47.11,1028.44,2030.03,3300.99,2981.77,3360.68,600.28,598.20,12.82,0000 0000 0000 0000 000000
2016-06-07 02:29:12,0.03,0.56,0.00,25.55,28.85,31.57,14.50,47.09,1028.43,2030.03,3300.09,2981.04,3359.99,599.88,597.69,12.87,0000 0000 0000 0000 000000
2016-06-07 02:34:13,0.03,0.56,0.00,25.57,28.85,31.59,14.53,47.25,1028.39,2030.03,3299.45,2980.82,3359.31,599.76,597.44,12.92,0000 0000 0000 0000 000000
2016-06-07 02:39:14,0.04,0.57,0.00,25.57,28.86,31.58,14.43,46.79,1028.44,2030.03,3298.64,2980.07,3358.64,599.64,597.39,12.97,0000 0000 0000 0000 000000
2016-06-07 02:44:15,0.02,0.57,0.00,25.57,28.87,31.58,14.42,46.83,1028.42,2030.01,3297.82,2979.81,3357.95,599.80,597.71,13.02,0000 0000 0000 0000 000000
2016-06-07 02:49:17,0.04,0.57,0.00,25.57,28.87,31.58,14.49,47.08,1028.35,2030.01,3297.03,2979.08,3357.17,599.94,597.70,13.07,0000 0000 0000 0000 000000
2016-06-07 02:54:18,0.03,0.57,0.00,25.57,28.87,31.59,14.48,46.87,1028.35,2030.01,3296.18,2978.84,3356.61,600.41,598.03,13.12,0000 0000 0000 0000 000000
2016-06-07 02:59:20,0.04,0.57,0.00,25.59,28.88,31.59,14.43,46.88,1028.37,2030.01,3295.46,2978.06,3355.97,599.70,597.47,13.17,0000 0000 0000 0000 000000
2016-06-07 03:04:21,0.03,0.58,0.00,25.60,28.90,31.59,14.47,47.23,1028.35,2030.00,3294.74,2977.71,3355.19,599.12,596.80,13.22,0000 0000 0000 0000 000000
2016-06-07 03:09:22,0.04,0.58,0.00,25.60,28.90,31.59,14.37,46.72,1028.35,2030.00,3293.69,2977.03,3354.48,599.53,597.20,13.27,0000 0000 0000 0000 000000
2016-06-07 03:14:23,0.04,0.58,0.00,25.61,28.90,31.58,14.46,46.96,1028.34,2030.00,3292.79,2976.47,3353.72,600.00,597.59,13.32,0000 0000 0000 0000 000000
2016-06-07 03:19:25,0.04,0.58,0.00,25.62,28.91,31.61,14.48,47.06,1028.34,2030.00,3291.65,2975.93,3352.72,599.79,597.37,13.37,0000 0000 0000 0000 000000
2016-06-07 03:24:26,0.04,0.59,0.00,25.62,28.92,31.63,14.40,46.74,1028.34,2030.00,3290.82,2975.24,3351.99,599.57,597.27,13.42,0000 0000 0000 0000 000000
2016-06-07 03:29:27,0.04,0.59,0.00,25.62,28.92,31.63,14.51,47.17,1028.34,2030.00,3289.79,2974.72,3351.09,599.83,597.38,13.47,0000 0000 0000 0000 000000
2016-06-07 03:34:28,0.04,0.59,0.00,25.64,28.94,31.62,14.57,47.33,1028.34,2030.00,3288.84,2974.00,3350.19,600.33,598.00,13.52,0000 0000 0000 0000 000000
2016-06-07 03:39:29,0.05,0.59,0.00,25.65,28.95,31.62,14.43,46.97,1028.34,2030.00,3287.86,2973.19,3349.33,599.96,597.50,13.57,0000 0000 0000 0000 000000
2016-06-07 03:44:30,0.04,0.59,0.00,25.66,28.95,31.63,14.45,46.91,1028.34,2029.99,3286.86,2972.68,3348.52,599.79,597.52,13.63,0000 0000 0000 0000 000000
2016-06-07 03:49:32,0.06,0.60,0.00,25.67,28.97,31.64,14.48,47.32,1028.34,2029.99,3285.45,2971.84,3347.32,599.88,597.40,13.68,0000 0000 0000 0000 000000
2016-06-07 03:54:33,0.06,0.60,0.00,25.67,28.98,31.66,14.51,47.39,1028.34,2029.99,3284.06,2970.88,3346.16,599.94,597.41,13.73,0000 0000 0000 0000 000000
2016-06-07 03:59:34,0.05,0.61,0.00,25.69,29.00,31.66,14.38,47.01,1028.34,2029.99,3282.81,2970.03,3345.05,599.67,597.24,13.78,0000 0000 0000 0000 000000
2016-06-07 04:04:35,0.06,0.61,0.00,25.70,29.00,31.66,14.51,47.30,1028.34,2029.99,3281.73,2969.30,3344.04,600.24,597.71,13.83,0000 0000 0000 0000 000000
2016-06-07 04:09:37,0.06,0.61,0.00,25.70,29.02,31.67,14.57,47.29,1028.34,2029.99,3280.39,2968.56,3342.93,600.41,597.88,13.88,0000 0000 0000 0000 000000
2016-06-07 04:14:38,0.07,0.61,0.00,25.70,29.02,31.70,14.40,47.12,1028.34,2029.99,3278.87,2967.54,3341.68,599.38,596.94,13.93,0000 0000 0000 0000 000000
2016-06-07 04:19:39,0.06,0.62,0.00,25.72,29.05,31.70,14.55,47.40,1028.34,2029.98,3277.40,2966.62,3340.42,599.94,597.36,13.98,0000 0000 0000 0000 000000
2016-06-07 04:24:41,0.04,0.62,0.00,25.72,29.05,31.71,14.52,47.02,1028.33,2029.96,3276.24,2965.83,3339.36,600.11,597.70,14.03,0000 0000 0000 0000 000000
2016-06-07 04:29:42,0.04,0.62,0.00,25.72,29.07,31.73,14.52,47.23,1028.33,2029.87,3275.13,2965.01,3338.29,600.01,597.44,14.08,0000 0000 0000 0000 000000
2016-06-07 04:34:43,0.05,0.63,0.00,25.73,29.07,31.73,14.47,47.00,1028.26,2029.79,3274.04,2964.14,3337.24,600.29,597.69,14.13,0000 0000 0000 0000 000000
2016-06-07 04:39:45,0.03,0.63,0.00,25.73,29.09,31.78,14.39,46.89,1028.23,2029.55,3272.77,2963.39,3336.28,600.23,597.47,14.18,0000 0000 0000 0000 000000
2016-06-07 04:44:46,0.04,0.63,0.00,25.75,29.10,31.77,14.49,46.98,1028.04,2029.30,3271.49,2962.57,3335.07,599.57,596.88,14.23,0000 0000 0000 0000 000000
2016-06-07 04:49:47,0.05,0.63,0.00,25.76,29.11,31.76,14.45,47.19,1027.92,2029.12,3270.17,2961.60,3333.90,600.01,597.06,14.28,0000 0000 0000 0000 000000
2016-06-07 04:54:48,0.06,0.63,0.00,25.78,29.12,31.80,14.48,47.03,1027.87,2029.06,3268.88,2960.73,3332.69,600.22,597.27,14.33,0000 0000 0000 0000 000000
2016-06-07 04:59:49,0.06,0.64,0.00,25.79,29.14,31.76,14.44,47.11,1027.86,2029.02,3267.46,2959.72,3331.45,599.44,596.39,14.38,0000 0000 0000 0000 000000
2016-06-07 05:04:51,0.05,0.64,0.00,25.80,29.15,31.79,14.54,47.34,1027.86,2029.01,3266.16,2958.84,3330.23,600.33,597.32,14.43,0000 0000 0000 0000 000000
2016-06-07 05:09:52,0.08,0.65,0.00,25.79,29.16,31.81,14.45,47.08,1027.85,2029.00,3264.51,2957.84,3328.80,599.71,596.70,14.48,0000 0000 0000 0000 000000
2016-06-07 05:14:53,0.06,0.65,0.00,25.80,29.17,31.85,14.62,47.52,1027.85,2029.00,3263.22,2956.88,3327.52,600.06,597.06,14.53,0000 0000 0000 0000 000000
2016-06-07 05:19:54,0.06,0.65,0.00,25.81,29.18,31.87,14.46,47.19,1027.85,2029.00,3261.89,2955.94,3326.42,599.85,596.85,14.58,0000 0000 0000 0000 000000
2016-06-07 05:24:56,0.09,0.66,0.00,25.82,29.20,31.86,14.49,47.14,1027.85,2029.00,3260.33,2954.73,3324.92,600.39,597.38,14.63,0000 0000 0000 0000 000000
2016-06-07 05:29:57,0.07,0.66,0.00,25.83,29.20,31.88,14.30,46.75,1027.84,2029.00,3258.83,2953.72,3323.48,599.60,596.47,14.68,0000 0000 0000 0000 000000
2016-06-07 05:34:58,0.06,0.66,0.00,25.85,29.22,31.90,14.49,47.07,1027.81,2028.98,3257.43,2952.82,3322.17,600.13,596.92,14.73,0000 0000 0000 0000 000000
2016-06-07 05:39:59,0.06,0.67,0.00,25.86,29.22,31.89,14.42,46.96,1027.82,2028.98,3256.17,2951.85,3320.93,599.80,596.58,14.78,0000 0000 0000 0000 000000
2016-06-07 05:45:00,0.07,0.67,0.00,25.87,29.25,31.89,14.43,47.20,1027.81,2028.97,3254.74,2950.88,3319.70,599.62,596.62,14.83,0000 0000 0000 0000 000000
2016-06-07 05:50:01,0.06,0.67,0.00,25.87,29.25,31.95,14.55,47.34,1027.82,2028.95,3253.30,2949.94,3318.39,600.02,596.84,14.88,0000 0000 0000 0000 000000
2016-06-07 05:55:03,0.05,0.68,0.00,25.88,29.27,31.92,14.53,47.20,1027.74,2028.85,3251.88,2949.02,3317.18,600.34,597.00,14.93,0000 0000 0000 0000 000000
2016-06-07 06:00:04,0.08,0.68,0.00,25.90,29.27,31.89,14.45,47.23,1027.62,2028.66,3250.34,2947.78,3315.54,599.84,596.46,14.98,0000 0000 0000 0000 000000
2016-06-07 06:05:06,0.04,0.68,0.00,25.92,29.29,31.93,14.56,47.41,1027.62,2028.54,3248.88,2946.75,3314.33,600.30,596.91,15.03,0000 0000 0000 0000 000000
2016-06-07 06:10:07,0.03,0.68,0.00,25.93,29.30,31.93,14.49,47.05,1027.59,2028.13,3247.59,2945.80,3313.18,600.26,596.87,15.08,0000 0000 0000 0000 000000
2016-06-07 06:15:08,0.06,0.69,0.00,25.94,29.31,31.97,14.43,47.05,1027.40,2028.11,3246.23,2944.90,3311.98,600.29,596.80,15.13,0000 0000 0000 0000 000000
2016-06-07 06:20:10,0.07,0.69,0.00,25.95,29.32,31.96,14.43,47.06,1027.40,2028.03,3244.81,2944.02,3310.65,600.24,596.55,15.18,0000 0000 0000 0000 000000
2016-06-07 06:25:11,0.06,0.69,0.00,25.97,29.33,31.99,14.48,47.08,1027.39,2028.03,3243.55,2943.14,3309.46,600.22,596.59,15.23,0000 0000 0000 0000 000000
2016-06-07 06:30:12,0.06,0.70,0.00,25.99,29.35,32.02,14.38,46.89,1027.38,2028.02,3242.24,2942.25,3308.30,599.82,596.11,15.28,0000 0000 0000 0000 000000
2016-06-07 06:35:14,0.06,0.70,0.00,26.01,29.36,32.00,14.47,47.29,1027.38,2028.00,3240.90,2941.28,3307.14,600.50,596.86,15.33,0000 0000 0000 0000 000000
2016-06-07 06:40:15,0.06,0.70,0.00,26.04,29.37,32.01,14.42,47.16,1027.37,2028.00,3239.80,2940.46,3306.07,600.14,596.32,15.38,0000 0000 0000 0000 000000
2016-06-07 06:45:17,0.06,0.71,0.00,26.07,29.40,32.04,14.39,46.96,1027.38,2028.00,3238.65,2939.64,3304.89,599.68,595.86,15.43,0000 0000 0000 0000 000000
2016-06-07 06:50:18,0.04,0.71,0.00,26.10,29.41,32.10,14.46,47.36,1027.38,2028.00,3237.63,2938.78,3303.92,600.02,596.21,15.48,0000 0000 0000 0000 000000
2016-06-07 06:55:19,0.08,0.71,0.00,26.12,29.44,32.09,14.46,47.49,1027.36,2027.99,3236.12,2937.72,3302.66,600.05,596.02,15.53,0000 0000 0000 0000 000000
2016-06-07 07:00:21,0.04,0.72,0.00,26.13,29.46,32.12,14.45,47.37,1027.37,2027.97,3235.04,2936.82,3301.68,599.88,595.94,15.58,0000 0000 0000 0000 000000
2016-06-07 07:05:22,0.07,0.72,0.00,26.14,29.48,32.14,14.51,47.67,1027.36,2027.90,3233.67,2935.76,3300.40,600.22,596.23,15.63,0000 0000 0000 0000 000000
2016-06-07 07:10:23,0.05,0.72,0.00,26.17,29.51,32.15,14.39,47.33,1027.36,2027.61,3232.21,2934.70,3299.01,599.73,595.79,15.68,0000 0000 0000 0000 000000
2016-06-07 07:15:25,0.04,0.72,0.00,26.20,29.53,32.17,14.35,47.02,1027.36,2027.22,3230.59,2933.62,3297.61,599.87,595.78,15.73,0000 0000 0000 0000 000000
2016-06-07 07:20:26,0.06,0.73,0.00,26.21,29.55,32.18,14.35,47.45,1027.36,2027.05,3229.00,2932.57,3296.22,599.92,595.79,15.78,0000 0000 0000 0000 000000
2016-06-07 07:25:28,0.07,0.73,0.00,26.25,29.57,32.20,14.38,46.87,1027.36,2027.03,3227.65,2931.59,3294.97,599.87,595.70,15.83,0000 0000 0000 0000 000000
2016-06-07 07:30:29,0.07,0.74,0.00,26.28,29.59,32.21,14.47,47.44,1027.33,2027.00,3226.25,2930.59,3293.63,600.49,596.28,15.88,0000 0000 0000 0000 000000
2016-06-07 07:35:30,0.06,0.74,0.00,26.32,29.61,32.21,14.31,47.03,1027.32,2027.00,3225.02,2929.72,3292.49,599.20,595.06,15.94,0000 0000 0000 0000 000000
2016-06-07 07:40:31,0.07,0.74,0.00,26.34,29.63,32.20,14.46,47.26,1027.25,2027.00,3223.71,2928.66,3291.23,599.85,595.41,15.99,0000 0000 0000 0000 000000
2016-06-07 07:45:32,0.07,0.75,0.00,26.35,29.66,32.22,14.37,47.30,1027.13,2026.98,3222.18,2927.62,3289.87,599.84,595.25,16.04,0000 0000 0000 0000 000000
2016-06-07 07:50:33,0.07,0.75,0.00,26.36,29.68,32.22,14.43,47.47,1026.95,2026.93,3220.58,2926.48,3288.49,600.13,595.37,16.09,0000 0000 0000 0000 000000
2016-06-07 07:55:35,0.06,0.75,0.00,26.37,29.70,32.26,14.41,47.42,1026.90,2026.79,3219.21,2925.48,3287.25,600.15,595.55,16.14,0000 0000 0000 0000 000000
2016-06-07 08:00:36,0.03,0.76,0.00,26.39,29.72,32.30,14.34,47.17,1026.90,2026.53,3217.77,2924.51,3285.95,599.76,595.01,16.19,0000 0000 0000 0000 000000
2016-06-07 08:05:37,0.04,0.76,0.00,26.42,29.74,32.34,14.37,47.03,1026.90,2026.16,3216.37,2923.50,3284.63,599.98,595.18,16.24,0000 0000 0000 0000 000000
2016-06-07 08:10:38,0.06,0.76,0.00,26.44,29.75,32.32,14.49,47.27,1026.90,2026.08,3214.97,2922.47,3283.38,599.83,595.15,16.29,0000 0000 0000 0000 000000
2016-06-07 08:15:39,0.06,0.76,0.00,26.46,29.77,32.37,14.43,47.11,1026.89,2026.02,3213.59,2921.43,3282.19,600.08,595.23,16.34,0000 0000 0000 0000 000000
2016-06-07 08:20:40,0.08,0.77,0.00,26.48,29.77,32.36,14.38,46.92,1026.91,2026.00,3212.05,2920.30,3280.79,600.02,595.10,16.39,0000 0000 0000 0000 000000
2016-06-07 08:25:41,0.08,0.77,0.00,26.49,29.79,32.38,14.32,47.38,1026.96,2025.99,3210.26,2918.99,3279.13,600.12,595.20,16.44,0000 0000 0000 0000 000000
2016-06-07 08:30:43,0.10,0.78,0.00,26.52,29.80,32.36,14.32,47.15,1026.91,2025.99,3208.55,2917.82,3277.55,599.67,594.77,16.49,0000 0000 0000 0000 000000
2016-06-07 08:35:44,0.06,0.78,0.00,26.53,29.82,32.36,14.49,47.31,1026.91,2025.98,3207.02,2916.80,3276.16,600.17,595.14,16.54,0000 0000 0000 0000 000000
2016-06-07 08:40:45,0.94,0.81,0.00,26.58,29.84,32.37,14.40,47.14,1026.89,2025.95,3193.53,2907.42,3265.94,599.63,594.48,16.59,0000 0000 0000 0000 000000
2016-06-07 08:45:47,0.11,0.83,0.00,26.61,29.86,32.37,14.45,47.43,1026.88,2025.79,3184.95,2901.49,3259.57,600.27,594.79,16.64,0000 0000 0000 0000 000000
2016-06-07 08:50:48,0.03,0.84,0.00,26.65,29.87,32.38,14.39,47.43,1026.88,2025.38,3183.62,2900.29,3258.15,600.28,594.82,16.69,0000 0000 0000 0000 000000
2016-06-07 08:55:49,0.05,0.84,0.00,26.67,29.90,32.41,14.47,47.47,1026.87,2025.07,3182.27,2899.22,3256.91,600.10,594.80,16.74,0000 0000 0000 0000 000000
2016-06-07 09:00:51,0.07,0.84,0.00,26.69,29.92,32.43,14.50,47.31,1026.87,2025.04,3180.73,2898.22,3255.62,600.11,594.89,16.79,0000 0000 0000 0000 000000
2016-06-07 09:05:52,0.06,0.85,0.00,26.73,29.95,32.44,14.39,47.32,1026.89,2025.01,3179.56,2897.24,3254.57,600.14,594.88,16.84,0000 0000 0000 0000 000000
2016-06-07 09:10:53,0.07,0.85,0.00,26.78,29.97,32.47,14.41,47.38,1026.88,2025.00,3178.06,2896.16,3253.19,600.02,594.57,16.89,0000 0000 0000 0000 000000
2016-06-07 09:15:55,0.08,0.85,0.00,26.82,30.00,32.49,14.34,47.09,1026.88,2025.00,3176.54,2895.09,3251.81,599.78,593.98,16.94,0000 0000 0000 0000 000000
2016-06-07 09:20:56,0.07,0.86,0.00,26.89,30.03,32.50,14.27,46.88,1026.88,2025.00,3175.04,2893.98,3250.53,599.79,594.09,16.99,0000 0000 0000 0000 000000
2016-06-07 09:25:57,0.07,0.86,0.00,26.95,30.06,32.52,14.34,47.43,1026.88,2024.97,3173.67,2892.90,3249.17,599.68,593.97,17.04,0000 0000 0000 0000 000000
2016-06-07 09:30:58,0.05,0.86,0.00,27.02,30.09,32.52,14.48,47.61,1026.88,2024.82,3172.29,2891.82,3247.95,600.31,594.30,17.09,0000 0000 0000 0000 000000
2016-06-07 09:36:00,0.05,0.87,0.00,27.08,30.12,32.55,14.37,47.23,1026.87,2024.30,3170.51,2890.61,3246.39,600.47,594.25,17.14,0000 0000 0000 0000 000000
2016-06-07 09:41:01,0.06,0.87,0.00,27.13,30.15,32.59,14.53,47.67,1026.87,2024.08,3168.87,2889.56,3244.87,600.55,594.32,17.19,0000 0000 0000 0000 000000
2016-06-07 09:46:02,0.06,0.87,0.00,27.17,30.18,32.61,14.43,47.33,1026.87,2024.01,3167.59,2888.49,3243.65,599.68,593.34,17.24,0000 0000 0000 0000 000000
2016-06-07 09:51:03,0.07,0.88,0.00,27.24,30.21,32.65,14.37,46.90,1026.88,2024.00,3165.97,2887.36,3242.29,600.19,593.70,17.29,0000 0000 0000 0000 000000
2016-06-07 09:56:05,0.07,0.88,0.00,27.28,30.25,32.68,14.29,47.03,1026.89,2024.00,3164.76,2886.32,3241.06,599.80,593.27,17.34,0000 0000 0000 0000 000000
2016-06-07 10:01:06,0.07,0.88,0.00,27.33,30.28,32.73,14.35,47.02,1026.88,2023.94,3163.25,2885.24,3239.67,599.89,593.27,17.39,0000 0000 0000 0000 000000
2016-06-07 10:06:07,0.03,0.89,0.00,27.38,30.31,32.77,14.41,46.91,1026.87,2023.56,3161.75,2884.09,3238.37,599.91,593.18,17.44,0000 0000 0000 0000 000000
2016-06-07 10:11:08,0.04,0.89,0.00,27.42,30.35,32.81,14.31,46.77,1026.87,2023.16,3160.25,2883.01,3236.95,599.46,592.79,17.49,0000 0000 0000 0000 000000
2016-06-07 10:16:10,0.07,0.89,0.00,27.46,30.38,32.85,14.32,46.98,1026.87,2023.04,3158.82,2881.96,3235.64,599.56,592.67,17.54,0000 0000 0000 0000 000000
2016-06-07 10:21:11,0.07,0.89,0.00,27.48,30.41,32.90,14.39,47.13,1026.87,2023.00,3157.45,2880.86,3234.41,600.03,593.08,17.59,0000 0000 0000 0000 000000
2016-06-07 10:26:12,0.07,0.90,0.00,27.52,30.45,32.94,14.40,47.04,1026.87,2022.99,3156.10,2879.82,3233.11,600.10,593.10,17.64,0000 0000 0000 0000 000000
2016-06-07 10:31:14,0.07,0.90,0.00,27.53,30.49,32.99,14.47,47.28,1026.87,2022.91,3154.60,2878.81,3231.70,600.18,593.14,17.69,0000 0000 0000 0000 000000
2016-06-07 10:36:15,0.02,0.91,0.00,27.55,30.53,33.03,14.35,47.04,1026.87,2022.52,3153.16,2877.76,3230.39,600.22,593.15,17.74,0000 0000 0000 0000 000000
2016-06-07 10:41:16,0.05,0.91,0.00,27.57,30.56,33.06,14.27,46.80,1026.87,2022.07,3151.65,2876.71,3228.97,599.84,592.73,17.79,0000 0000 0000 0000 000000
2016-06-07 10:46:17,0.08,0.91,0.00,27.59,30.60,33.10,14.40,47.12,1026.87,2022.04,3149.94,2875.67,3227.54,600.80,593.51,17.84,0000 0000 0000 0000 000000
2016-06-07 10:51:18,0.06,0.91,0.00,27.61,30.64,33.14,14.25,46.61,1026.87,2022.00,3148.70,2874.64,3226.35,599.91,592.53,17.89,0000 0000 0000 0000 000000
2016-06-07 10:56:19,0.08,0.92,0.00,27.62,30.67,33.17,14.24,46.55,1026.87,2022.00,3147.08,2873.44,3224.85,599.80,592.81,17.94,0000 0000 0000 0000 000000
2016-06-07 11:01:21,0.07,0.92,0.00,27.64,30.71,33.21,14.32,46.87,1026.87,2021.98,3145.54,2872.40,3223.46,599.77,592.64,17.99,0000 0000 0000 0000 000000
2016-06-07 11:06:22,0.05,0.93,0.00,27.65,30.74,33.24,14.49,47.55,1026.86,2021.83,3144.26,2871.35,3222.25,600.87,593.49,18.04,0000 0000 0000 0000 000000
2016-06-07 11:11:23,0.01,0.93,0.00,27.68,30.77,33.28,14.43,47.39,1026.77,2021.19,3142.83,2870.20,3220.97,600.41,593.02,18.09,0000 0000 0000 0000 000000
2016-06-07 11:16:25,0.07,0.93,0.00,27.70,30.80,33.32,14.41,47.09,1026.70,2021.04,3141.42,2869.13,3219.58,599.99,592.57,18.14,0000 0000 0000 0000 000000
2016-06-07 11:21:26,0.07,0.93,0.00,27.73,30.83,33.34,14.29,46.94,1026.80,2021.00,3139.90,2867.98,3218.31,599.97,592.50,18.19,0000 0000 0000 0000 000000
2016-06-07 11:26:27,0.08,0.94,0.00,27.74,30.86,33.38,14.31,46.78,1026.80,2021.00,3138.33,2866.92,3216.88,600.30,592.59,18.24,0000 0000 0000 0000 000000
2016-06-07 11:31:28,0.08,0.94,0.00,27.76,30.89,33.41,14.33,46.85,1026.63,2020.99,3136.78,2865.84,3215.55,599.98,592.53,18.29,0000 0000 0000 0000 000000
2016-06-07 11:36:29,0.07,0.95,0.00,27.77,30.91,33.42,14.34,46.74,1026.63,2020.95,3135.47,2864.81,3214.22,600.20,592.50,18.34,0000 0000 0000 0000 000000
2016-06-07 11:41:30,0.03,0.95,0.00,27.77,30.94,33.46,14.30,46.72,1026.64,2020.72,3134.51,2863.83,3213.08,600.14,592.57,18.39,0000 0000 0000 0000 000000
2016-06-07 11:46:31,0.03,0.95,0.00,27.77,30.97,33.48,14.38,47.15,1026.72,2020.29,3133.12,2862.83,3211.91,600.12,592.50,18.44,0000 0000 0000 0000 000000
2016-06-07 11:51:32,0.05,0.95,0.00,27.76,31.00,33.52,14.41,47.29,1026.65,2020.08,3131.89,2861.81,3210.77,600.07,592.48,18.49,0000 0000 0000 0000 000000
2016-06-07 11:56:34,0.07,0.96,0.00,27.76,31.01,33.52,14.27,46.78,1026.61,2020.01,3130.48,2860.83,3209.51,599.86,592.17,18.54,0000 0000 0000 0000 000000
2016-06-07 12:01:35,0.07,0.96,0.00,27.77,31.03,33.54,14.24,46.83,1026.64,2020.00,3128.96,2859.81,3208.24,599.74,592.18,18.60,0000 0000 0000 0000 000000
2016-06-07 12:06:36,0.08,0.96,0.00,27.77,31.05,33.56,14.36,47.13,1026.66,2020.00,3127.51,2858.80,3206.85,600.17,592.61,18.65,0000 0000 0000 0000 000000
2016-06-07 12:11:37,0.08,0.97,0.00,27.78,31.07,33.59,14.40,47.01,1026.50,2020.00,3125.85,2857.76,3205.58,600.35,592.64,18.70,0000 0000 0000 0000 000000
2016-06-07 12:16:39,0.04,0.97,0.00,27.79,31.09,33.60,14.44,46.98,1026.40,2019.99,3124.87,2856.91,3204.59,600.16,592.22,18.75,0000 0000 0000 0000 000000
2016-06-07 12:21:40,0.07,0.97,0.00,27.79,31.11,33.63,14.31,46.80,1026.39,2019.96,3123.64,2855.99,3203.46,599.69,591.88,18.80,0000 0000 0000 0000 000000
2016-06-07 12:26:42,0.06,0.98,0.00,27.80,31.13,33.63,14.18,46.42,1026.38,2019.92,3122.28,2854.98,3202.23,599.65,591.99,18.85,0000 0000 0000 0000 000000
2016-06-07 12:31:43,0.05,0.98,0.00,27.81,31.15,33.64,14.34,47.02,1026.39,2019.77,3120.97,2854.01,3201.05,599.82,591.92,18.90,0000 0000 0000 0000 000000
2016-06-07 12:36:44,0.02,0.98,0.00,27.81,31.17,33.68,14.33,46.76,1026.38,2019.31,3119.80,2852.99,3199.89,600.40,592.33,18.95,0000 0000 0000 0000 000000
2016-06-07 12:41:45,0.07,0.98,0.00,27.81,31.19,33.69,14.33,46.70,1026.38,2019.09,3118.24,2852.04,3198.68,600.06,592.19,19.00,0000 0000 0000 0000 000000
2016-06-07 12:46:47,0.05,0.99,0.00,27.81,31.20,33.69,14.32,47.10,1026.38,2019.06,3117.20,2851.13,3197.75,600.04,592.19,19.05,0000 0000 0000 0000 000000
2016-06-07 12:51:48,0.05,0.99,0.00,27.80,31.22,33.72,14.41,47.26,1026.38,2019.01,3115.98,2850.13,3196.73,599.95,592.22,19.10,0000 0000 0000 0000 000000
2016-06-07 12:56:49,0.08,0.99,0.00,27.80,31.23,33.72,14.31,47.01,1026.38,2019.00,3114.59,2849.18,3195.52,599.64,591.75,19.15,0000 0000 0000 0000 000000